TimeCST,TemperatureF,Dew PointF,Humidity,Sea Level PressureIn,VisibilityMPH,Wind Direction,Wind SpeedMPH,Gust SpeedMPH,PrecipitationIn,Events,Conditions,WindDirDegrees,DateUTC
12:53 AM,27.0,21.0,78,30.11,10.0,SW,5.8,-,N/A,,Mostly Cloudy,230,2013-01-17 06:53:00
1:53 AM,25.0,19.9,81,30.17,10.0,SW,8.1,-,N/A,,Clear,220,2013-01-17 07:53:00
2:53 AM,27.0,21.0,78,30.19,10.0,SW,10.4,-,N/A,,Clear,230,2013-01-17 08:53:00
3:53 AM,25.0,19.9,81,30.20,10.0,WSW,6.9,-,N/A,,Clear,250,2013-01-17 09:53:00
4:53 AM,28.4,21.2,74,30.18,10.0,NW,8.1,-,N/A,,Clear,310,2013-01-17 10:53:00
5:53 AM,28.4,23.0,80,30.20,10.0,NNW,10.4,-,N/A,,Clear,330,2013-01-17 11:53:00
6:53 AM,26.1,21.9,84,30.27,10.0,NNW,6.9,-,N/A,,Clear,340,2013-01-17 12:53:00
7:13 AM,26.6,23.0,86,30.24,10.0,NNW,8.1,-,N/A,,Scattered Clouds,340,2013-01-17 13:13:00
7:24 AM,26.6,24.8,93,30.25,10.0,NNW,8.1,-,N/A,,Mostly Cloudy,340,2013-01-17 13:24:00
7:53 AM,28.9,25.0,85,30.31,8.0,NNW,9.2,-,N/A,,Overcast,330,2013-01-17 13:53:00
8:53 AM,28.9,27.0,92,30.36,7.0,North,9.2,-,N/A,,Overcast,350,2013-01-17 14:53:00
9:53 AM,30.0,27.0,88,30.40,10.0,North,9.2,-,N/A,,Overcast,350,2013-01-17 15:53:00
10:48 AM,32.0,26.6,80,30.37,10.0,NNW,12.7,-,N/A,,Overcast,330,2013-01-17 16:48:00
10:53 AM,32.0,27.0,82,30.40,10.0,North,11.5,-,N/A,,Overcast,350,2013-01-17 16:53:00
11:40 AM,35.6,26.6,70,30.36,10.0,NNW,15.0,-,N/A,,Scattered Clouds,340,2013-01-17 17:40:00
11:53 AM,36.0,26.1,67,30.39,10.0,NNW,13.8,-,N/A,,Clear,340,2013-01-17 17:53:00
12:53 PM,37.9,23.0,55,30.37,10.0,NW,12.7,-,N/A,,Clear,320,2013-01-17 18:53:00
1:53 PM,39.0,21.0,49,30.38,10.0,NNW,12.7,-,N/A,,Clear,330,2013-01-17 19:53:00
2:53 PM,39.9,21.0,47,30.38,10.0,NNW,13.8,-,N/A,,Clear,340,2013-01-17 20:53:00
3:53 PM,39.9,21.0,47,30.40,10.0,North,12.7,-,N/A,,Clear,350,2013-01-17 21:53:00
4:53 PM,37.0,19.9,50,30.42,10.0,NNW,9.2,-,N/A,,Clear,340,2013-01-17 22:53:00
5:53 PM,33.1,19.9,59,30.44,10.0,North,6.9,-,N/A,,Clear,350,2013-01-17 23:53:00
6:53 PM,30.0,19.9,66,30.46,10.0,North,5.8,-,N/A,,Clear,360,2013-01-18 00:53:00
7:53 PM,30.0,19.9,66,30.47,10.0,Calm,Calm,-,N/A,,Clear,0,2013-01-18 01:53:00
8:53 PM,25.0,19.0,78,30.48,10.0,Calm,Calm,-,N/A,,Clear,0,2013-01-18 02:53:00
9:53 PM,26.1,19.0,75,30.48,10.0,ESE,4.6,-,N/A,,Clear,120,2013-01-18 03:53:00
10:53 PM,23.0,18.0,81,30.49,10.0,SSE,3.5,-,N/A,,Clear,150,2013-01-18 04:53:00
11:53 PM,19.9,16.0,85,30.48,10.0,SSE,3.5,-,N/A,,Clear,160,2013-01-18 05:53:00